Regional Weather Roundup
Issued by NWS Mt. Holly, NJ

Home | Current Version | Previous Version | Text Only | Print | Product List | Glossary On
Versions: 1 2 3 4 5 6 7 8 9 10 11 12 13 14 15 16 17 18 19 20 21 22 23 24 25 26 27
000
ASUS41 KPHI 232212
RWRPHI

REGIONAL WEATHER ROUNDUP
NATIONAL WEATHER SERVICE MOUNT HOLLY NJ
600 PM EDT SUN APR 23 2017

NOTE:  "FAIR" INDICATES FEW OR NO CLOUDS BELOW 12,000 FEET WITH NO
SIGNIFICANT WEATHER AND/OR OBSTRUCTIONS TO VISIBILITY.

 * = STATION DOES NOT REPORT PRECIPITATION (E.G. RAIN, SNOW, ETC.)
        OR FOG.

NJZ015>026-232300-
SOUTHERN NEW JERSEY

CITY           SKY/WX    TMP DP  RH WIND       PRES   REMARKS
POMONA         CLOUDY    53  44  71 SE8       30.10R
WILDWOOD*      CLOUDY    52  45  77 E8        30.11S
MILLVILLE      CLOUDY    55  45  68 VRB6      30.09S
WRIGHTSTOWN    MOSUNNY   60  45  57 SE13      30.06R
MOUNT HOLLY    MOSUNNY   61  44  53 SE9       30.07R
TRENTON        MOSUNNY   63  39  41 S6        30.06S

$$
NJZ001>014-232300-
NORTHERN NEW JERSEY

CITY           SKY/WX    TMP DP  RH WIND       PRES   REMARKS
SUSSEX         MOSUNNY   68  28  22 SW7       30.04S
ANDOVER*         N/A     65  36  34 SW9       30.04S
MORRISTOWN     PTSUNNY   66  34  30 S7        30.06R
NEWARK         PTSUNNY   60  39  45 SE7       30.07R
TETERBORO      PTSUNNY   63  39  41 S9        30.05S
CALDWELL       MOSUNNY   67  33  28 SW7       30.06R
SOMERVILLE     MOSUNNY   66  35  31 CALM      30.04S
ALLAIRE*       PTSUNNY   53  40  61 S10       30.11S
TOMS RIVER*    PTSUNNY   54  44  69 SE10      30.11R

$$
PAZ043-044-047-054-055-060>062-066>071-232300-
EASTERN PENNSYLVANIA

CITY           SKY/WX    TMP DP  RH WIND       PRES   REMARKS
PHILADELPHIA   CLOUDY    62  47  57 S16       30.07S
NORTH PHILA    CLOUDY    65  40  39 CALM      30.08S
BLUE BELL*     PTSUNNY   61  37  41 SE6       30.08S
DOYLESTOWN     MOSUNNY   64  36  35 CALM      30.05S
QUAKERTOWN*    SUNNY     64  37  36 S3        30.07R
PERKASIE*      FAIR      64  34  32 SE5       30.07S
POTTSTOWN      MOSUNNY   63  37  38 CALM      30.07S
LANCASTER      PTSUNNY   63  48  58 SE5       30.06S
COATESVILLE    CLOUDY    63  41  45 CALM      30.08S
READING        SUNNY     66  39  37 VRB3      30.04S
ALLENTOWN      MOSUNNY   67  38  34 CALM      30.05S
MOUNT POCONO   CLOUDY    60  36  40 S9        30.04S
HAZLETON       MOSUNNY   64  34  32 SE8       30.07S
LEHIGHTON      FAIR      64  30  27 CALM      30.05S
WILKES BARRE   SUNNY     69  29  22 VRB5      30.01F

$$
DEZALL-MDZ008-012-015-019-020-232300-
DELAWARE AND EASTERN MARYLAND

CITY           SKY/WX    TMP DP  RH WIND       PRES   REMARKS
WILMINGTON     CLOUDY    57  48  72 S16       30.09R
DOVER          CLOUDY    54  53  97 SE9       30.08F
GEORGETOWN     CLOUDY    54  45  71 MISG      30.11R
EASTON         CLOUDY    61  45  55 SE6       30.13R
ABERDEEN       CLOUDY    59  44  56 S6        30.09R
PATUXENT       CLOUDY    57  49  74 CALM      30.09R
OCEAN CITY     CLOUDY    52  45  77 E9        30.11R
WALLOPS ISLAND CLOUDY    53  49  86 NE13      30.10S
CAMBRIDGE      SUNNY     59  46  63 SE9       30.09R
SALISBURY      PTSUNNY   55  46  71 E8        30.10R

$$
PAZ001-021-NYZ056-072-MDZ011-DCZ001-232300-
OTHER NEARBY LOCATIONS

CITY           SKY/WX    TMP DP  RH WIND       PRES   REMARKS
HARRISBURG     CLOUDY    64  42  44 SE6       30.06R
STATE COLLEGE  SUNNY     66  34  30 CALM      30.03S
WILLIAMSPORT   SUNNY     67  32  27 VRB5      30.02S
BINGHAMTON     SUNNY     64  26  23 NW8       30.03R
NEW YORK CITY  MOSUNNY   58  40  51 S8        30.10R
BALTIMORE      CLOUDY    58  43  57 E5        30.08S
WASHINGTON DC  CLOUDY    59  43  55 SE8       30.09S

$$




USA.gov is the U.S. government's official web portal to all federal, state and local government web resources and services.